{"data":{"norad_id":59255,"intl_designator":"2024-050B","name":"STARLINK-31629","alt_names":[],"object_type":"PAYLOAD","status":"ACTIVE","operator":null,"country":"US","launch_date":"2024-03-19","launch_site_code":"AFWTR","launch_vehicle":null,"mission":null,"orbit_class":"UNKNOWN","rcs_meters":null,"size_class":null,"mass_kg":null,"dimensions":null,"purposes":["comms"],"wikipedia_slug":null,"has_3d_model":false,"image_url":null,"decayed_at":null,"tle_current":{"epoch":"2026-05-25T03:28:20.078976Z","epoch_age_seconds":58552,"freshness":"FRESH","line1":"1 59255U 24050B   26145.14467684 -.00000064  00000+0  99788-5 0  9991","line2":"2 59255  53.1600 185.9080 0001179  82.7983 277.3152 15.30185555122256","mean_motion":15.30185555,"eccentricity":0.0001179,"inclination_deg":53.16,"raan_deg":185.908,"arg_perigee_deg":82.7983,"mean_anomaly_deg":277.3152,"bstar":9.9788e-6,"rev_number":12225,"period_min":94.106234063881,"perigee_km":474.45018463082,"apogee_km":476.06621521896,"semimajor_km":6853.3951999249,"source":"CELESTRAK","updated_at":"2026-05-25T13:38:18.874131Z"}}}